Back to catalog

ELEKTRON 3 DEB

AliveUNKNOWN
NORAD 831·DEBRIS·🇷🇺 Russia

Launched Jul 10, 1964 from Baikonur Cosmodrome

Loading…

Next Passes (next 24 hours)

TLE

FreshSource: Space-Track

Epoch: Sep 13, 2026, 10:58 UTC

1 00831U 64038C   26256.45739932  .00009217  00000-0  76077-3 0  9995
2 00831  60.6632 319.5181 1233512  73.1716 300.0659 12.85659963377270

Track ELEKTRON 3 DEB in real time with AllMySat

Download on the App Store